This demonstration page uses our WeatherBlox Daily Observations layout. Learn more.

Left ArrowRight Arrow

34.74481, -87.66753

Hourly Observations for January 20, 2020

Temp ( °F °C ) Dew Point ( °F °C ) Humidity (%) Winds ( mph kmh ) Pressure ( in mb ) Visibility ( mi km ) Precip ( " mm )
12:53 am 00:53 Clear 28 -2.2 14 -10 56 56 N 7 11 30.43 1030 10 16 0.00 0.00
1:53 am 01:53 Clear 27 -2.8 14 -10 58 58 N 9 15 30.43 1031 10 16 0.00 0.00
2:53 am 02:53 Clear 26 -3.3 14 -10 60 60 N 6 9 30.44 1031 10 16 0.00 0.00
3:53 am 03:53 Clear 25 -3.9 14 -10 63 63 N 9 15 30.46 1031 10 16 0.00 0.00
4:53 am 04:53 Mostly Cloudy 24 -4.4 15 -9.4 68 68 NNW 9 15 30.48 1032 10 16 0.00 0.00
5:53 am 05:53 Cloudy 23 -5 15 -9.4 72 72 NNW 8 13 30.50 1033 10 16 0.00 0.00
6:53 am 06:53 Cloudy 24 -4.4 15 -9.4 68 68 N 7 11 30.52 1034 10 16 0.00 0.00
7:53 am 07:53 Cloudy 25 -3.9 16 -8.9 69 69 NNE 9 15 30.55 1034 10 16 0.00 0.00
8:53 am 08:53 Cloudy 25 -3.9 16 -8.9 69 69 NNW 10 17 30.56 1035 10 16 0.00 0.00
9:53 am 09:53 Cloudy 26 -3.3 16 -8.9 66 66 N 6 9 30.58 1035 10 16 0.00 0.00
10:53 am 10:53 Cloudy 27 -2.8 17 -8.3 66 66 NNE 7 11 30.57 1035 10 16 0.00 0.00
11:53 am 11:53 Cloudy 28 -2.2 17 -8.3 63 63 NNE 8 13 30.55 1035 10 16 0.00 0.00
12:53 pm 12:53 Cloudy 29 -1.7 17 -8.3 61 61 N 7 11 30.54 1034 10 16 0.00 0.00
1:53 pm 13:53 Cloudy 30 -1.1 17 -8.3 58 58 NNW 8 13 30.52 1033 10 16 0.00 0.00
2:53 pm 14:53 Cloudy 29 -1.7 16 -8.9 58 58 NNE 8 13 30.51 1033 10 16 0.00 0.00
3:53 pm 15:53 Cloudy 30 -1.1 17 -8.3 58 58 N 6 9 30.52 1034 10 16 0.00 0.00
4:11 pm 16:11 Cloudy 29 -1.7 16 -8.9 58 58 NNE 9 15 30.53 1034 10 16 0.00 0.00
4:21 pm 16:21 Cloudy 29 -1.7 16 -8.9 58 58 N 6 9 30.53 1034 10 16 0.00 0.00
4:53 pm 16:53 Cloudy 28 -2.2 16 -8.9 60 60 N 8 13 30.52 1034 10 16 0.00 0.00
5:50 pm 17:50 Partly Cloudy 27 -3 16 -9 64 64 N 6 9 30.55 1034 10 16 0.00 0.00
5:53 pm 17:53 Mostly Clear 27 -2.8 16 -8.9 63 63 NNW 8 13 30.53 1034 10 16 0.00 0.00
6:33 pm 18:33 Mostly Cloudy 27 -2.8 15 -9.4 61 61 N 7 11 30.56 1035 10 16 0.00 0.00
6:53 pm 18:53 Cloudy 27 -2.8 16 -8.9 63 63 N 7 11 30.53 1034 10 16 0.00 0.00
7:53 pm 19:53 Cloudy 26 -3.3 15 -9.4 63 63 NNE 13 20 30.54 1034 10 16 0.00 0.00
8:53 pm 20:53 Cloudy 26 -3.3 15 -9.4 63 63 NE 13 20 30.54 1034 10 16 0.00 0.00
9:53 pm 21:53 Cloudy 26 -3.3 15 -9.4 63 63 N 8 13 30.54 1034 10 16 0.00 0.00
10:53 pm 22:53 Cloudy 25 -3.9 15 -9.4 66 66 NNE 8 13 30.55 1034 10 16 0.00 0.00
11:53 pm 23:53 Cloudy 25 -3.9 13 -10.6 60 60 N 8 13 30.54 1034 10 16 0.00 0.00

Powered by AerisWeather